This demonstration page uses our WeatherBlox Daily Observations layout. Learn more.

Left ArrowRight Arrow

Hourly Observations for March 20, 2015

Temp ( °F °C ) Dew Point ( °F °C ) Humidity (%) Winds ( mph kmh ) Pressure ( in mb ) Visibility ( mi km ) Precip ( " mm )
12:16 am 00:16 Cloudy 41 5 28 -2 61 61 ESE 6 9 30.12 1020 10 16 N/A
12:36 am 00:36 Cloudy 41 5 30 -1 66 66 E 7 11 30.12 1020 10 16 N/A
12:55 am 00:55 Cloudy 41 5 30 -1 66 66 E 6 9 30.12 1020 10 16 N/A
1:16 am 01:16 Cloudy 39 4 30 -1 70 70 ENE 7 11 30.09 1019 10 16 N/A
1:36 am 01:36 Cloudy 39 4 30 -1 70 70 ENE 5 7 30.09 1019 10 16 N/A
1:55 am 01:55 Cloudy 39 4 30 -1 70 70 ENE 5 7 30.09 1019 10 16 N/A
2:16 am 02:16 Cloudy 39 4 34 1 81 81 ENE 3 6 30.09 1019 7 11 N/A
2:36 am 02:36 Cloudy 39 4 39 4 100 100 NE 5 7 30.09 1019 7 11 N/A
2:55 am 02:55 Cloudy 39 4 N/A N/A NE 3 6 30.09 1019 7 11 N/A
3:16 am 03:16 Cloudy 39 4 N/A N/A NNE 3 6 30.09 1019 7 11 N/A
3:36 am 03:36 Cloudy 39 4 N/A N/A N N/A 30.09 1019 7 11 N/A
3:55 am 03:55 Cloudy 39 4 N/A N/A N N/A 30.09 1019 7 11 N/A
4:16 am 04:16 Cloudy 39 4 N/A N/A NNE 3 6 30.09 1019 5 8 N/A
4:36 am 04:36 Cloudy 39 4 N/A N/A NNE 3 6 30.09 1019 5 8 N/A
4:55 am 04:55 Cloudy 39 4 N/A N/A N N/A 30.09 1019 7 11 N/A
5:16 am 05:16 Cloudy 39 4 N/A N/A N N/A 30.09 1019 7 11 N/A
5:36 am 05:36 Cloudy 39 4 N/A N/A N N/A 30.09 1019 5 8 N/A
5:55 am 05:55 Cloudy 39 4 N/A N/A N N/A 30.09 1019 5 8 N/A
6:16 am 06:16 Cloudy 39 4 N/A N/A N N/A 30.09 1019 7 11 N/A
6:36 am 06:36 Cloudy 37 3 N/A N/A N N/A 30.12 1020 5 8 N/A
6:55 am 06:55 Cloudy 39 4 N/A N/A N N/A 30.09 1019 5 8 N/A
7:16 am 07:16 Cloudy 39 4 N/A N/A N 6 9 30.09 1019 4 6 N/A
7:36 am 07:36 Cloudy 37 3 N/A N/A N 6 9 30.15 1021 3 5 N/A
7:55 am 07:55 Cloudy 37 3 N/A N/A N 5 7 30.15 1021 3 5 N/A
8:16 am 08:16 Cloudy 37 3 N/A N/A NNE 3 6 30.15 1021 4 6 N/A
8:35 am 08:35 Cloudy 37 3 N/A N/A N 5 7 30.15 1021 2 3 N/A
8:56 am 08:56 Cloudy 37 3 N/A N/A N 5 7 30.15 1021 3 4 N/A
9:16 am 09:16 Cloudy 37 3 N/A N/A N N/A 30.18 1022 3 4 N/A
9:35 am 09:35 Cloudy 37 3 N/A N/A N N/A 30.18 1022 2 2 N/A
9:56 am 09:56 Cloudy 39 4 N/A N/A N N/A 30.15 1021 2 3 N/A
10:16 am 10:16 Cloudy 39 4 N/A N/A N N/A 30.15 1021 2 3 N/A
10:35 am 10:35 Cloudy 39 4 N/A N/A N N/A 30.15 1021 3 5 N/A
10:56 am 10:56 Cloudy 39 4 N/A N/A N N/A 30.15 1021 4 6 N/A
11:16 am 11:16 Cloudy 41 5 N/A N/A N N/A 30.15 1021 5 8 N/A
11:35 am 11:35 Cloudy 41 5 N/A N/A N N/A 30.18 1022 5 8 N/A
11:56 am 11:56 Cloudy 41 5 N/A N/A WNW 3 6 30.18 1022 5 8 N/A
12:16 pm 12:16 Cloudy 43 6 N/A N/A N N/A 30.18 1022 4 6 N/A
12:35 pm 12:35 Cloudy 45 7 37 3 76 76 N N/A 30.15 1021 5 8 N/A
12:56 pm 12:56 Cloudy 43 6 32 undefined 66 66 NW 5 7 30.15 1021 7 11 N/A
1:16 pm 13:16 Cloudy 45 7 34 1 66 66 NW 5 7 30.15 1021 7 11 N/A
1:35 pm 13:35 Cloudy 45 7 32 undefined 61 61 NNW 7 11 30.15 1021 7 11 N/A
1:56 pm 13:56 Mostly Cloudy 45 7 32 undefined 61 61 WNW 5 7 30.15 1021 10 16 N/A
2:16 pm 14:16 Cloudy 45 7 32 undefined 61 61 W 6 9 30.15 1021 10 16 N/A
2:35 pm 14:35 Cloudy 46 8 32 undefined 57 57 W 6 9 30.15 1021 10 16 N/A
2:56 pm 14:56 Cloudy 46 8 32 undefined 57 57 WSW 6 9 30.15 1021 10 16 N/A
3:16 pm 15:16 Cloudy 46 8 32 undefined 57 57 WSW 6 9 30.15 1021 10 16 N/A
3:35 pm 15:35 Cloudy 46 8 32 undefined 57 57 W 5 7 30.12 1020 10 16 N/A
3:56 pm 15:56 Cloudy 46 8 32 undefined 57 57 SW 6 9 30.12 1020 10 16 N/A
4:16 pm 16:16 Mostly Cloudy 46 8 32 undefined 57 57 W 7 11 30.12 1020 10 16 N/A
4:35 pm 16:35 Cloudy 46 8 32 undefined 57 57 WSW 7 11 30.12 1020 10 16 N/A
4:56 pm 16:56 Cloudy 46 8 32 undefined 57 57 W 9 15 30.12 1020 10 16 N/A
5:15 pm 17:15 Mostly Cloudy 46 8 32 undefined 57 57 W 8 13 30.12 1020 10 16 N/A
5:35 pm 17:35 Mostly Cloudy 46 8 32 undefined 57 57 W 8 13 30.12 1020 10 16 N/A
5:56 pm 17:56 Mostly Cloudy 46 8 32 undefined 57 57 WSW 8 13 30.12 1020 10 16 N/A
6:15 pm 18:15 Mostly Cloudy 46 8 32 undefined 57 57 W 8 13 30.12 1020 10 16 N/A
6:35 pm 18:35 Mostly Cloudy 46 8 32 undefined 57 57 W 9 15 30.12 1020 10 16 N/A
6:56 pm 18:56 Mostly Cloudy 46 8 32 undefined 57 57 W 7 11 30.12 1020 10 16 N/A
7:15 pm 19:15 Mostly Cloudy 46 8 32 undefined 57 57 W 7 11 30.12 1020 10 16 N/A
7:36 pm 19:36 Mostly Cloudy 46 8 32 undefined 57 57 W 8 13 30.15 1021 10 16 N/A
7:56 pm 19:56 Mostly Cloudy 46 8 32 undefined 57 57 W 6 9 30.15 1021 10 16 N/A
8:15 pm 20:15 Mostly Cloudy 46 8 32 undefined 57 57 W 6 9 30.15 1021 10 16 N/A
8:36 pm 20:36 Cloudy 45 7 34 1 66 66 WSW 6 9 30.12 1020 10 16 N/A
8:56 pm 20:56 Mostly Cloudy 45 7 32 undefined 61 61 W 8 13 30.15 1021 10 16 N/A
9:15 pm 21:15 Mostly Cloudy 45 7 32 undefined 61 61 W 8 13 30.15 1021 10 16 N/A
9:36 pm 21:36 Cloudy 45 7 32 undefined 61 61 W 7 11 30.15 1021 10 16 N/A
9:56 pm 21:56 Mostly Cloudy 45 7 32 undefined 61 61 W 6 9 30.15 1021 10 16 N/A
10:15 pm 22:15 Cloudy 45 7 32 undefined 61 61 W 6 9 30.15 1021 10 16 N/A
10:36 pm 22:36 Cloudy 45 7 32 undefined 61 61 WSW 9 15 30.15 1021 10 16 N/A
10:56 pm 22:56 Mostly Cloudy 45 7 32 undefined 61 61 W 9 15 30.15 1021 10 16 N/A
11:15 pm 23:15 Mostly Cloudy 45 7 32 undefined 61 61 WSW 7 11 30.15 1021 10 16 N/A
11:36 pm 23:36 Mostly Cloudy 45 7 32 undefined 61 61 WSW 7 11 30.15 1021 10 16 N/A
11:56 pm 23:56 Mostly Cloudy 45 7 32 undefined 61 61 WSW 8 13 30.15 1021 10 16 N/A

Powered by AerisWeather